Regional Weather Roundup
Issued by NWS

Home | Current Version | Previous Version | Graphics & Text | Print | Product List | Glossary On
Versions: 1 2 3 4 5 6 7 8 9 10 11 12 13 14 15 16 17 18 19 20 21 22 23 24 25 26 27 28 29 30 31 32 33 34 35 36 37 38 39 40 41 42 43 44 45 46 47 48 49 50
209
ASUS45 KBOI 050510
RWRID

IDAHO REGIONAL WEATHER ROUNDUP
NATIONAL WEATHER SERVICE BOISE ID
1000 PM MST SUN DEC 04 2016

NOTE: "FAIR" INDICATES FEW OR NO CLOUDS BELOW 12000 FEET
WITH NO SIGNIFICANT WEATHER AND/OR OBSTRUCTIONS TO VISIBILITY

IDZ012-014-050600-
SOUTHWEST IDAHO


CITY           SKY/WX    TMP DP  RH WIND       PRES   REMARKS
BOISE          MOCLDY    32  21  64 NW15      29.94R WCI  22
CALDWELL       PTCLDY    33  18  53 W18G26    29.99R WCI  22
MOUNTAIN HOME  MOCLDY    35  31  84 NW21      29.91R WCI  24
$$

IDZ016-017-050600-
SOUTHCENTRAL IDAHO


CITY           SKY/WX    TMP DP  RH WIND       PRES   REMARKS
BURLEY         LGT SNOW  33  31  92 W16G24    29.79R FOG     WCI  23
JEROME         SNOW      32  32 100 SW23G29   29.82R VSB 1/4 WCI  19
TWIN FALLS     LGT SNOW  32  30  92 W24G32    29.83R FOG     WCI  19
$$

IDZ019>023-050600-
SOUTHEAST IDAHO


CITY           SKY/WX    TMP DP  RH WIND       PRES   REMARKS
IDAHO FALLS    CLOUDY    35  31  85 SW28G37   29.66R WCI  22
POCATELLO      CLOUDY    35  33  92 SW25      29.74F WCI  23
REXBURG        CLOUDY    34  32  92 SW17G25   29.63S WCI  23
$$

IDZ006-010-011-018-031-032-050600-
CENTRAL IDAHO MOUNTAINS


CITY           SKY/WX    TMP DP  RH WIND       PRES   REMARKS
MCCALL         MOCLDY    20  11  68 W5        29.82R WCI  13
HAILEY         PTCLDY    34  21  60 W12G17    29.70R WCI  25
STANLEY          N/A     19   7  59 VRB3      29.73R
SALMON         CLOUDY    30  19  64 NE10      29.73R WCI  21
CHALLIS        PTCLDY    29  19  66 SW14      29.68R WCI  18
$$

IDZ002-004-006-007-026-050600-
NORTHERN IDAHO


CITY           SKY/WX    TMP DP  RH WIND       PRES   REMARKS
LEWISTON       PTCLDY    35  20  54 NW10      29.98R WCI  27
LOWELL           N/A     32  30  92 CALM      29.97R
COEUR D`ALENE  CLEAR     28  21  75 W6        29.87  WCI  22
MULLAN PASS    LGT SNOW  17  14  88 NW9G28    29.63R VSB 3/4 WCI   6
$$




USA.gov is the U.S. government's official web portal to all federal, state and local government web resources and services.